User: anonymous   Login
Location: Plymouth
(43.7570°N, 71.6890°W)
Time: 00:14:15
(UTC-04:00)
Language:

Cosmos 2016 Rocket - Orbit

View from above orbital plane
View from above orbital plane
View from above satellite
View from above satellite

Ground track
Ground track

The orbit data is extracted from the following two-line orbital elements,

1 19922U 89028B   14296.95224516  .00000096  00000-0  81326-4 0  1021
2 19922 082.9607 064.2553 0037610 076.1085 063.0261 13.77113634284105
Epoch (UTC): 23 October 2014 22:51:13
Eccentricity: 0.0037610
inclination: 82.9607°
perigee height: 946 km
apogee height: 1002 km
right ascension of ascending node: 64.2553°
argument of perigee: 76.1085°
revolutions per day: 13.77113634
mean anomaly at epoch: 63.0261°
orbit number at epoch: 28410

The dashed part of the orbit path shows where the satellite is in the earth's shadow,  

DLR